Find Starlink 1465

NORAD ID: 45731 Int'l Des: 2020-038 Owner: SPXS Country: US Constellation: starlink operational
LEOCIRCULAR

实时位置

正在加载3D地球...

关于 Starlink 1465

正在加载描述...

即将过境

Passes for default location (London). Set your location on the main map for personalized predictions.

高度历史

Loading altitude history...

两行轨道根数

1 45731U 20038B 26121.95136633 .00072717 00000-0 93411-3 0 9996
2 45731 53.0470 325.9375 0003709 142.4291 217.6980 15.58467944324664
Epoch: May 1, 2026 • Age: 5 hours

当前状态

高度 389.8 km
速度 7.68 km/s
星下点 13.85°N, 148.03°W
发射日期 Jun 13, 2020
运行时间 5.8 years
类型 internet

技术详情

分类 Payload
质量 260.00 kg
干质量 248.00 kg
总质量 260.00 kg
长度 0.20 m
直径 2.80 m
跨度 9.00 m
形状 Box + pan
制造商 SPXS
平台类型 Starlink
阶段状态 In Orbit
所有者/国家 SPXS/US

Most Searched